Miscellaneous Local Product
Issued by NWS North Platte, NE

Home | Current Version | Previous Version | Graphics & Text | Print | Product List | Glossary On
Versions: 1 2 3 4 5 6 7 8 9 10 11 12 13 14 15 16 17 18 19 20 21 22 23 24 25 26 27 28 29 30 31 32 33 34 35 36 37 38 39 40 41 42 43 44 45 46 47 48 49 50
000
AXUS43 KLBF 251310
MISLBF


WESTERN AND NORTH CENTRAL NEBRASKA HOURLY WEATHER ROUNDUP
NATIONAL WEATHER SERVICE NORTH PLATTE NE
800 AM CDT THU AUG 25 2016

NOTE: "FAIR" INDICATES FEW OR NO CLOUDS BELOW 12,000 FEET WITH NO
SIGNIFICANT WEATHER AND/OR OBSTRUCTIONS TO VISIBILITY.

NOTE: STATIONS NOT REPORTING VARIABLES SUCH AS SKY/WEATHER OR
PRESSURE ARE PROVIDED BY RAWS AND APRS NETWORKS AND ARE NOT UNDER
NATIONAL WEATHER SERVICE QUALITY CONTROL.

...OBSERVATIONS IN AND NEAR THE EASTERN PANHANDLE OF NEBRASKA...

CITY           SKY/WX    TMP DP  RH WIND       PRES   REMARKS
PINE RIDGE     LGT RAIN  52  48  86 CALM      30.28R
CHADRON        CLOUDY    53  48  83 N3        30.29R
ALLIANCE       CLOUDY    51  46  83 NE10      30.27R
SIDNEY         CLEAR     45  41  86 N8        30.26R
CRESCENT LAKE    N/A     52  48  86 NE9         N/A
$$

...OBSERVATIONS IN NORTHERN NEBRASKA AND FAR SOUTHERN SOUTH DAKOTA...

CITY           SKY/WX    TMP DP  RH WIND       PRES   REMARKS
WINNER         FAIR      54  47  77 W10       30.21R
VALENTINE      PTSUNNY   53  44  71 NW5       30.24R
THEDFORD       MOCLDY    53  47  79 CALM      30.25R
AINSWORTH      MOSUNNY   52  47  85 NW6       30.22S
O`NEILL        CLOUDY    57  51  80 N7        30.18S
ORD            CLOUDY    57  53  86 NW7       30.15S
BROKEN BOW     CLOUDY    56  52  86 N13       30.18R
VALENTINE NWR    N/A     47  44  91 N6          N/A
BUTTE            N/A     55  50  83 NW6         N/A
HALSEY           N/A     53  47  80 NW3         N/A
EWING            N/A     58  54  87 MISG        N/A
$$

...OBSERVATIONS IN SOUTHWEST NEBRASKA AND FAR NORTHEAST COLORADO...

CITY           SKY/WX    TMP DP  RH WIND       PRES   REMARKS
WRAY           FAIR      45  41  87 SW3       30.23R
HOLYOKE        FAIR      52  45  76 NW3       30.24R
IMPERIAL       PTCLDY    52  44  74 NW3       30.21S
OGALLALA       CLEAR     47  44  90 CALM      30.23R
NORTH PLATTE   PTCLDY    56  50  80 N12G18    30.21R
MCCOOK         PTCLDY    56  51  84 W3        30.18R
LEXINGTON      CLOUDY    56  54  91 CALM      30.17R
STAPLETON        N/A     53  49  87 CALM        N/A
GOTHENBURG       N/A     56  49  76 W3          N/A
CALLAWAY         N/A     52  51  95 NW3         N/A
$$

...OBSERVATIONS IN CENTRAL LINCOLN COUNTY AREA...

CITY           SKY/WX    TMP DP  RH WIND       PRES   REMARKS
N.P. AIRPORT   PTCLDY    56  50  80 N12G18    30.21R
N.P. DOWNTOWN    N/A     56  50  81 N5G12       N/A
N.P. HILLCREST   N/A     56  50  80 NE17        N/A
$$

...SOME OBSERVATIONS FROM AROUND THE REGION...

CITY           SKY/WX    TMP DP  RH WIND       PRES   REMARKS
DENVER         PTCLDY    50  40  68 W6        30.25R
LARAMIE        CLOUDY    44  42  93 CALM      30.31S
CHEYENNE       CLOUDY    47  43  86 N13       30.31R
SCOTTSBLUFF    CLOUDY    54  48  80 E6        30.28R
RAPID CITY     LGT RAIN  53  43  68 NW7       30.27R
BISMARCK       CLOUDY    55  50  83 NW8       30.13R
PIERRE         SUNNY     55  49  80 W10       30.19R
SIOUX FALLS    CLOUDY    59  54  83 NW6       30.12R
OMAHA          CLOUDY    60  56  86 N5        30.11R
GRAND ISLAND   PTSUNNY   60  56  86 NW6       30.14S
KANSAS CITY    TSTM      71  68  90 W9        30.10R FOG
WICHITA        CLOUDY    70  67  90 NW13      30.06R
OKLAHOMA CITY  MOSUNNY   74  69  85 S7        30.08R
DALLAS         MOSUNNY   77  72  84 SE3       30.07R
AMARILLO       PTCLDY    60  59  96 NW5       30.18R FOG
DODGE CITY     MOCLDY    61  59  93 NW5       30.15R
HAYS           CLOUDY    59  50  72 N13       30.15R
GOODLAND       CLOUDY    54  50  86 NW5       30.21R
$$




USA.gov is the U.S. government's official web portal to all federal, state and local government web resources and services.